Simultaneous Nadir Overpasses (SNOs) Predictions

Prediction of SNOs between LANDSAT-8 and METOP-B Satellite Orbit:

Table of predicted SNOs for the next 14.0 days since TLE Epoch: 4/8/2016
Index Date (LANDSAT-8) Time (LANDSAT-8) Lat,Lon (LANDSAT-8) SZA (LANDSAT-8 ) Date (METOP-B) Time (METOP-B) Lat,Lon (METOP-B) SZA (METOP-B ) Distance(km) Time Diff (sec)
1 04/09/2016 07:43:24 81.14, 103.77 75.37 04/09/2016 07:43:06 81.14, 103.92 75.38 2.57 18
2 04/09/2016 08:32:50 -81.15, -88.32 104.61 04/09/2016 08:33:46 -81.15, -88.28 104.58 0.71 56
3 04/12/2016 03:17:39 81.12, 169.94 74.32 04/12/2016 03:17:30 81.12, 169.93 74.32 0.54 9
4 04/12/2016 04:07:05 -81.14, -22.12 105.65 04/12/2016 04:08:10 -81.14, -22.24 105.64 2.06 65
5 04/14/2016 22:02:26 -81.12, 68.72 106.67 04/14/2016 22:01:12 -81.12, 68.89 106.68 2.90 74
6
